Location: Unspecified
(34.4950°S, 58.5160°W)
Time: 03:06:42
(UTC+00:00)

Cosmos 1937 Rocket - Pass Details

Date: 04 December 2021
Orbit: 746 x 780 km, 74.0° (Epoch: 23 January)

Event Time Altitude Azimuth Distance (km) Brightness Sun altitude
Rises 23:35:07 0° 332° (NNW) 3,233 6.7 -7.9°
Reaches altitude 10° 23:37:32 10° 327° (NNW) 2,309 6.0 -8.3°
Maximum altitude 23:42:40 53° 250° (WSW) 940 4.4 -9.2°
Drops below altitude 10° 23:47:48 10° 173° (S) 2,315 6.4 -10.1°
Sets 23:50:15 0° 168° (SSE) 3,242 7.1 -10.5°
